Brno, Czech Republic

10:05 AM CET on January 20, 2017 (GMT +0100)
Turany

Weather History for LKTB - November, 2013

Change the Weather History Date:

Wednesday, November 6, 2013

  Actual Average Record
Temperature  
Mean Temperature 41 °F -  
Max Temperature 52 °F 42 °F - ()
Min Temperature 30 °F 33 °F - ()
Degree Days  
Heating Degree Days 24    
Moisture  
Dew Point 36 °F    
Average Humidity 82    
Maximum Humidity 100    
Minimum Humidity 50    
Precipitation  
Precipitation 0.02 in 0.05 in - ()
Sea Level Pressure  
Sea Level Pressure 29.61 in    
Wind  
Wind Speed 4 mph ()    
Max Wind Speed 18 mph    
Max Gust Speed 26 mph    
Visibility 6.4 miles    
Events Rain    
T = Trace of Precipitation, MM = Missing Value Source: Averaged Metar Reports

Daily Weather History Graph

Daily Weather History Graph

Search for Another Location

Airport or City:

Trip Planner

Search our weather history database for the weather conditions in past years. The results will help you decide how hot, cold, wet, or windy it might be!

Date:

Astronomy

Nov. 06, 2013 Rise Set
Actual Time 6:48 AM CET 4:24 PM CET
Civil Twilight 6:14 AM CET 4:57 PM CET
Nautical Twilight 5:37 AM CET 5:35 PM CET
Astronomical Twilight 5:00 AM CET 6:12 PM CET
Moon 9:54 AM CET (11/6) 7:01 PM CET (11/6)
Length of Visible Light 10h 42m
Length of Day
9h 35m
Waxing Crescent, 11% of the Moon is Illuminated
Nov 6
Waxing Crescent
Nov 10
First Quarter
Nov 17
Full
Nov 25
Last Quarter
Dec 3
New

Hourly Weather History & Observations

Time (CET) Temp. Windchill Dew Point Humidity Pressure Visibility Wind Dir Wind Speed Gust Speed Precip Events Conditions
12:00 AM 32.0 °F 28.7 °F 30.2 °F 93% 29.50 in - South 3.5 mph - N/A   Clear
12:30 AM 32.0 °F 28.7 °F 30.2 °F 93% 29.50 in - South 3.5 mph - N/A   Clear
1:00 AM 34 °F - 32 °F 88%  in 12 mi SSW 2.2 mph - -   Clear
1:00 AM 33.8 °F - 32.0 °F 93% 29.47 in - Calm Calm - N/A   Clear
1:30 AM 33.8 °F - 32.0 °F 93% 29.47 in - Variable 1.2 mph - N/A   Clear
2:00 AM 30.2 °F - 28.4 °F 93% 29.47 in - ESE 2.3 mph - N/A   Clear
2:30 AM 33.8 °F - 32.0 °F 93% 29.47 in - Calm Calm - N/A   Clear
3:00 AM 33.8 °F - 32.0 °F 93% 29.47 in - SW 1.2 mph - N/A   Clear
3:30 AM 33.8 °F - 30.2 °F 87% 29.50 in 6.2 mi Variable 1.2 mph - N/A Rain Light Rain
4:00 AM 33.8 °F 29.6 °F 32.0 °F 93% 29.47 in 6.2 mi NE 4.6 mph - N/A Rain Light Rain
4:30 AM 33.8 °F - 33.8 °F 100% 29.50 in 6.2 mi Calm Calm - N/A Rain Light Rain
5:00 AM 35.6 °F - 32.0 °F 87% 29.50 in 6.2 mi Variable 2.3 mph - N/A Rain Light Rain
5:30 AM 35.6 °F - 33.8 °F 93% 29.50 in 6.2 mi Variable 2.3 mph - N/A Rain Light Rain
6:00 AM 35.6 °F - 33.8 °F 93% 29.50 in 6.2 mi ENE 2.3 mph - N/A Rain Light Rain
6:30 AM 35.6 °F - 33.8 °F 93% 29.50 in 6.2 mi Variable 2.3 mph - N/A Rain Light Rain
7:00 AM 36 °F - 34 °F 88% 29.55 in 6 mi NNW 2.2 mph - - Rain Light Rain
7:00 AM 35.6 °F - 33.8 °F 93% 29.50 in 6.2 mi Variable 1.2 mph - N/A Rain Light Rain
7:30 AM 35.6 °F - 33.8 °F 93% 29.50 in 6.2 mi Calm Calm - N/A Rain Light Rain
8:00 AM 37.4 °F 34.9 °F 35.6 °F 93% 29.53 in 6.2 mi SW 3.5 mph - N/A Rain Light Rain
8:30 AM 37.4 °F 32.8 °F 35.6 °F 93% 29.53 in 6.2 mi SSW 5.8 mph - N/A   Mostly Cloudy
9:00 AM 39.2 °F 34.2 °F 35.6 °F 87% 29.53 in 6.2 mi SSW 6.9 mph - N/A   Scattered Clouds
9:30 AM 41.0 °F 36.4 °F 39.2 °F 93% 29.53 in - SSW 6.9 mph - N/A   Clear
10:00 AM 42.8 °F 39.3 °F 39.2 °F 87% 29.56 in 6.2 mi South 5.8 mph - N/A   Partly Cloudy
10:30 AM 44.6 °F - 39.2 °F 81% 29.56 in 6.2 mi Variable 2.3 mph - N/A   Mostly Cloudy
11:00 AM 48.2 °F - 41.0 °F 76% 29.56 in 6.2 mi Variable 2.3 mph - N/A   Mostly Cloudy
11:30 AM 50.0 °F - 39.2 °F 66% 29.56 in 6.2 mi West 12.7 mph - N/A   Mostly Cloudy
12:00 PM 50.0 °F - 37.4 °F 62% 29.56 in 6.2 mi West 16.1 mph - N/A   Mostly Cloudy
12:30 PM 50.0 °F - 37.4 °F 62% 29.59 in 6.2 mi West 18.4 mph - N/A   Mostly Cloudy
1:00 PM 50 °F - 37 °F 50% 29.60 in 22 mi West 15.7 mph - -   Partly Cloudy
1:00 PM 50.0 °F - 37.4 °F 62% 29.59 in 6.2 mi West 15.0 mph - N/A   Partly Cloudy
1:30 PM 50.0 °F - 37.4 °F 62% 29.59 in 6.2 mi West 12.7 mph - N/A   Partly Cloudy
2:00 PM 50.0 °F - 37.4 °F 62% 29.59 in 6.2 mi West 13.8 mph - N/A   Partly Cloudy
2:30 PM 50.0 °F - 37.4 °F 62% 29.62 in 6.2 mi West 13.8 mph - N/A   Partly Cloudy
3:00 PM 50.0 °F - 37.4 °F 62% 29.62 in 6.2 mi West 12.7 mph 26.5 mph N/A Rain Light Rain
3:30 PM 46.4 °F 41.9 °F 37.4 °F 71% 29.65 in 6.2 mi West 9.2 mph - N/A   Partly Cloudy
4:00 PM 46.4 °F 43.5 °F 37.4 °F 71% 29.65 in - West 5.8 mph - N/A   Clear
4:30 PM 46.4 °F 41.5 °F 37.4 °F 71% 29.68 in - West 10.4 mph - N/A   Clear
5:00 PM 46.4 °F 42.4 °F 37.4 °F 71% 29.68 in - West 8.1 mph - N/A   Clear
5:30 PM 44.6 °F 42.2 °F 37.4 °F 76% 29.71 in - West 4.6 mph - N/A   Clear
6:00 PM 44.6 °F 43.1 °F 39.2 °F 81% 29.71 in - West 3.5 mph - N/A   Clear
6:30 PM 44.6 °F - 37.4 °F 76% 29.71 in - Variable 2.3 mph - N/A   Clear
7:00 PM 43 °F - 38 °F 74% 29.77 in 22 mi SE 4.5 mph - -   Partly Cloudy
7:00 PM 42.8 °F 41.1 °F 37.4 °F 81% 29.74 in - SE 3.5 mph - N/A   Clear
7:30 PM 42.8 °F 40.1 °F 37.4 °F 81% 29.74 in - SE 4.6 mph - N/A   Clear
8:00 PM 42.8 °F - 37.4 °F 81% 29.74 in - Variable 2.3 mph - N/A   Clear
8:30 PM 42.8 °F 39.3 °F 39.2 °F 87% 29.74 in - South 5.8 mph - N/A   Clear
9:00 PM 42.8 °F 40.1 °F 39.2 °F 87% 29.77 in - South 4.6 mph - N/A   Clear
9:30 PM 44.6 °F 40.2 °F 39.2 °F 81% 29.77 in - South 8.1 mph - N/A   Clear
10:00 PM 44.6 °F 40.7 °F 39.2 °F 81% 29.77 in - SSW 6.9 mph - N/A   Clear
10:07 PM 44.6 °F 40.7 °F 39.2 °F 81% 29.77 in 6.2 mi SW 6.9 mph - N/A Rain Light Rain
10:30 PM 44.6 °F 40.2 °F 39.2 °F 81% 29.80 in 6.2 mi WSW 8.1 mph - N/A Rain Light Rain
11:00 PM 44.6 °F 41.4 °F 41.0 °F 87% 29.80 in 6.2 mi WSW 5.8 mph - N/A Rain Light Rain
11:30 PM 44.6 °F 42.2 °F 41.0 °F 87% 29.80 in 6.2 mi SW 4.6 mph - N/A Rain Light Rain